Weather History for Eureka, NV

Change the Weather History Date:

Tuesday, September 4, 2012

  Actual Average Record
Temperature  
Mean Temperature 66 °F 62 °F  
Max Temperature 88 °F 82 °F 91 °F (2010)
Min Temperature 44 °F 43 °F 26 °F (1999)
Degree Days  
Heating Degree Days 0 4  
Month to date heating degree days 2 13  
Since 1 July heating degree days 2 60  
Cooling Degree Days 1 1  
Month to date cooling degree days 2 4  
Year to date cooling degree days 510 281  
Growing Degree Days 16 (Base 50)    
Moisture  
Dew Point 23 °F    
Average Humidity 32    
Maximum Humidity 58    
Minimum Humidity 6    
Precipitation  
Precipitation 0.00 in 0.02 in 1.02 in (1995)
Month to date precipitation 0.01 0.08  
Year to date precipitation 4.67 6.37  
Sea Level Pressure  
Sea Level Pressure 29.99 in    
Wind  
Wind Speed 7 mph (SW)    
Max Wind Speed 16 mph    
Max Gust Speed 20 mph    
T = Trace of Precipitation, MM = Missing Value Source: NWS Daily Summary

Daily Weather History Graph

Daily Weather History Graph

Search for Another Location

Airport:

Trip Planner

Search our weather history database for the weather conditions in past years. The results will help you decide how hot, cold, wet, or windy it might be!

Date:

Astronomy

Sep. 04, 2012 Rise Set
Actual Time 6:15 AM PDT 7:09 PM PDT
Civil Twilight 5:48 AM PDT 7:36 PM PDT
Nautical Twilight 5:15 AM PDT 8:09 PM PDT
Astronomical Twilight 4:41 AM PDT 8:42 PM PDT
Moon 9:06 PM PDT (9/4) 10:25 AM PDT (9/4)
Length of Visible Light 13h 48m
Length of Day
12h 53m
Waning Gibbous, 83% of the Moon is Illuminated
Sep 4
Waning Gibbous
Sep 8
Last Quarter
Sep 15
New
Sep 22
First Quarter
Sep 29
Full

Hourly Weather History & Observations

Time (PDT) Temp. Windchill Dew Point Humidity Pressure Visibility Wind Dir Wind Speed Gust Speed Precip Events Conditions
12:53 AM 55.0 °F - 28.9 °F 37% 29.96 in - South 8.1 mph - N/A   Unknown
1:53 AM 54.0 °F - 32.0 °F 43% 29.97 in - South 9.2 mph - N/A   Unknown
2:53 AM 53.1 °F - 28.9 °F 40% 29.97 in - SW 8.1 mph - N/A   Unknown
3:53 AM 50.0 °F - 28.9 °F 44% 29.99 in - SSW 8.1 mph - N/A   Unknown
4:53 AM 48.9 °F - 28.0 °F 44% 29.99 in - SSW 6.9 mph - N/A   Unknown
5:53 AM 45.0 °F 40.6 °F 30.0 °F 56% 30.03 in - South 8.1 mph - N/A   Unknown
6:53 AM 51.1 °F - 27.0 °F 39% 30.04 in - SSW 9.2 mph - N/A   Unknown
7:53 AM 59.0 °F - 30.9 °F 35% 30.06 in - SW 3.5 mph - N/A   Unknown
8:53 AM 66.9 °F - 24.1 °F 20% 30.06 in - Calm Calm - N/A   Unknown
9:53 AM 73.9 °F - 24.1 °F 16% 30.04 in - Calm Calm - N/A   Unknown
10:53 AM 79.0 °F - 18.0 °F 10% 30.01 in - WSW 3.5 mph - N/A   Unknown
11:53 AM 82.0 °F - 18.0 °F 9% 30.02 in - Variable 4.6 mph - N/A   Unknown
12:53 PM 82.9 °F - 14.0 °F 8% 29.99 in - Variable 6.9 mph - N/A   Unknown
1:53 PM 87.1 °F - 14.0 °F 7% 29.97 in - West 17.3 mph - N/A   Unknown
2:53 PM 86.0 °F - 12.9 °F 7% 29.96 in - WNW 6.9 mph 18.4 mph N/A   Unknown
3:53 PM 86.0 °F - 12.9 °F 7% 29.96 in - West 6.9 mph 17.3 mph N/A   Unknown
4:53 PM 86.0 °F - 12.9 °F 7% 29.94 in - SW 10.4 mph - N/A   Unknown
5:53 PM 84.0 °F - 14.0 °F 7% 29.95 in - WSW 9.2 mph - N/A   Unknown
6:53 PM 77.0 °F - 18.0 °F 11% 29.96 in - NW 8.1 mph - N/A   Unknown
7:53 PM 70.0 °F - 19.9 °F 15% 29.98 in - NNW 9.2 mph - N/A   Unknown
8:53 PM 69.1 °F - 23.0 °F 18% 29.99 in - Calm Calm - N/A   Unknown
9:53 PM 57.9 °F - 27.0 °F 31% 30.00 in - South 9.2 mph - N/A   Unknown
10:53 PM 57.0 °F - 28.0 °F 33% 29.99 in - South 6.9 mph - N/A   Unknown
11:53 PM 55.0 °F - 27.0 °F 34% 29.98 in - SSW 4.6 mph - N/A   Unknown